Time,TemperatureF,DewpointF,PressureIn,WindDirection,WindDirectionDegrees,WindSpeedMPH,WindSpeedGustMPH,Humidity,HourlyPrecipIn,Conditions,Clouds,dailyrainin,SoftwareType,DateUTC
2013-01-19 00:03:00,41.0,27.0,30.38,North,-999,-999.0,-999.0,56,-99.99,,,-99.99,,2013-01-19 05:03:00,
2013-01-19 00:13:00,41.0,27.0,30.38,North,-999,-999.0,-999.0,56,-99.99,,,-99.99,,2013-01-19 05:13:00,
2013-01-19 00:23:00,41.0,26.0,30.38,North,-999,-999.0,-999.0,54,-99.99,,,-99.99,,2013-01-19 05:23:00,
2013-01-19 00:33:00,41.0,25.0,30.38,North,-999,-999.0,-999.0,53,-99.99,,,-99.99,,2013-01-19 05:33:00,
2013-01-19 00:43:00,41.0,25.0,30.38,North,-999,-999.0,-999.0,53,-99.99,,,-99.99,,2013-01-19 05:43:00,
2013-01-19 00:53:00,40.0,25.0,30.38,North,-999,-999.0,-999.0,55,-99.99,,,-99.99,,2013-01-19 05:53:00,
2013-01-19 01:03:00,40.0,25.0,30.38,North,-999,-999.0,-999.0,55,-99.99,,,-99.99,,2013-01-19 06:03:00,
2013-01-19 01:12:00,40.0,25.0,30.38,North,-999,-999.0,-999.0,55,-99.99,,,-99.99,,2013-01-19 06:12:00,
2013-01-19 01:22:00,39.0,25.0,30.38,North,-999,-999.0,-999.0,56,-99.99,,,-99.99,,2013-01-19 06:22:00,
2013-01-19 01:33:00,39.0,25.0,30.38,North,-999,-999.0,-999.0,56,-99.99,,,-99.99,,2013-01-19 06:33:00,
2013-01-19 01:43:00,39.0,25.0,30.38,North,-999,-999.0,-999.0,56,-99.99,,,-99.99,,2013-01-19 06:43:00,
2013-01-19 01:53:00,39.0,25.0,30.37,North,-999,-999.0,-999.0,56,-99.99,,,-99.99,,2013-01-19 06:53:00,
2013-01-19 02:02:00,39.0,25.0,30.38,North,-999,-999.0,-999.0,57,-99.99,,,-99.99,,2013-01-19 07:02:00,
2013-01-19 02:12:00,39.0,25.0,30.38,North,-999,-999.0,-999.0,57,-99.99,,,-99.99,,2013-01-19 07:12:00,
2013-01-19 02:22:00,38.0,25.0,30.37,North,-999,-999.0,-999.0,58,-99.99,,,-99.99,,2013-01-19 07:22:00,
2013-01-19 02:33:00,38.0,25.0,30.37,North,-999,-999.0,-999.0,59,-99.99,,,-99.99,,2013-01-19 07:33:00,
2013-01-19 02:43:00,38.0,25.0,30.37,North,-999,-999.0,-999.0,59,-99.99,,,-99.99,,2013-01-19 07:43:00,
2013-01-19 02:53:00,38.0,25.0,30.40,North,-999,-999.0,-999.0,60,-99.99,,,-99.99,,2013-01-19 07:53:00,
2013-01-19 03:02:00,38.0,26.0,30.40,North,-999,-999.0,-999.0,61,-99.99,,,-99.99,,2013-01-19 08:02:00,
2013-01-19 03:12:00,38.0,26.0,30.40,North,-999,-999.0,-999.0,61,-99.99,,,-99.99,,2013-01-19 08:12:00,
2013-01-19 03:22:00,38.0,26.0,30.40,North,-999,-999.0,-999.0,61,-99.99,,,-99.99,,2013-01-19 08:22:00,
2013-01-19 03:32:00,37.0,25.0,30.40,North,-999,-999.0,-999.0,61,-99.99,,,-99.99,,2013-01-19 08:32:00,
2013-01-19 03:43:00,37.0,25.0,30.40,North,-999,-999.0,-999.0,61,-99.99,,,-99.99,,2013-01-19 08:43:00,
2013-01-19 03:53:00,37.0,25.0,30.40,North,-999,-999.0,-999.0,61,-99.99,,,-99.99,,2013-01-19 08:53:00,
2013-01-19 04:02:00,37.0,25.0,30.39,North,-999,-999.0,-999.0,62,-99.99,,,-99.99,,2013-01-19 09:02:00,
2013-01-19 04:12:00,37.0,25.0,30.39,North,-999,-999.0,-999.0,62,-99.99,,,-99.99,,2013-01-19 09:12:00,
2013-01-19 04:23:00,37.0,25.0,30.39,North,-999,-999.0,-999.0,62,-99.99,,,-99.99,,2013-01-19 09:23:00,
2013-01-19 04:33:00,36.0,25.0,30.39,North,-999,-999.0,-999.0,64,-99.99,,,-99.99,,2013-01-19 09:33:00,
2013-01-19 04:42:00,36.0,25.0,30.39,North,-999,-999.0,-999.0,64,-99.99,,,-99.99,,2013-01-19 09:42:00,
2013-01-19 04:53:00,36.0,25.0,30.39,North,-999,-999.0,-999.0,64,-99.99,,,-99.99,,2013-01-19 09:53:00,
2013-01-19 05:02:00,36.0,25.0,30.38,North,-999,-999.0,-999.0,64,-99.99,,,-99.99,,2013-01-19 10:02:00,
2013-01-19 05:12:00,36.0,25.0,30.38,North,-999,-999.0,-999.0,64,-99.99,,,-99.99,,2013-01-19 10:12:00,
2013-01-19 05:23:00,36.0,25.0,30.38,North,-999,-999.0,-999.0,65,-99.99,,,-99.99,,2013-01-19 10:23:00,
2013-01-19 05:33:00,36.0,25.0,30.38,North,-999,-999.0,-999.0,65,-99.99,,,-99.99,,2013-01-19 10:33:00,
2013-01-19 05:43:00,36.0,25.0,30.38,North,-999,-999.0,-999.0,65,-99.99,,,-99.99,,2013-01-19 10:43:00,
2013-01-19 05:53:00,35.0,24.0,30.37,North,-999,-999.0,-999.0,65,-99.99,,,-99.99,,2013-01-19 10:53:00,
2013-01-19 06:03:00,35.0,24.0,30.37,North,-999,-999.0,-999.0,65,-99.99,,,-99.99,,2013-01-19 11:03:00,
2013-01-19 06:12:00,35.0,24.0,30.37,North,-999,-999.0,-999.0,65,-99.99,,,-99.99,,2013-01-19 11:12:00,
2013-01-19 07:47:00,34.0,23.0,30.37,North,-999,-999.0,-999.0,64,-99.99,,,-99.99,,2013-01-19 12:47:00,
2013-01-19 07:48:00,34.0,23.0,30.36,North,-999,-999.0,-999.0,64,-99.99,,,-99.99,,2013-01-19 12:48:00,
2013-01-19 07:53:00,34.0,23.0,30.36,North,-999,-999.0,-999.0,64,-99.99,,,-99.99,,2013-01-19 12:53:00,
2013-01-19 08:03:00,34.0,23.0,30.37,North,-999,-999.0,-999.0,64,-99.99,,,-99.99,,2013-01-19 13:03:00,
2013-01-19 08:13:00,34.0,23.0,30.37,North,-999,-999.0,-999.0,64,-99.99,,,-99.99,,2013-01-19 13:13:00,
2013-01-19 08:23:00,35.0,24.0,30.37,South,173,10.0,-999.0,63,-99.99,,,-99.99,,2013-01-19 13:23:00,
2013-01-19 08:33:00,38.0,25.0,30.39,South,171,6.0,-999.0,58,-99.99,,,-99.99,,2013-01-19 13:33:00,
2013-01-19 08:34:00,35.0,24.0,30.37,South,173,10.0,-999.0,63,-99.99,,,-99.99,,2013-01-19 13:34:00,
2013-01-19 08:43:00,35.0,24.0,30.37,South,173,10.0,-999.0,63,-99.99,,,-99.99,,2013-01-19 13:43:00,
2013-01-19 08:54:00,38.0,25.0,30.39,South,171,6.0,-999.0,58,-99.99,,,-99.99,,2013-01-19 13:54:00,
2013-01-19 09:03:00,38.0,25.0,30.39,South,171,6.0,-999.0,58,-99.99,,,-99.99,,2013-01-19 14:03:00,
2013-01-19 09:12:00,38.0,25.0,30.39,South,171,6.0,-999.0,58,-99.99,,,-99.99,,2013-01-19 14:12:00,
2013-01-19 09:23:00,38.0,25.0,30.39,South,171,6.0,-999.0,58,-99.99,,,-99.99,,2013-01-19 14:23:00,
2013-01-19 10:03:00,41.0,25.0,30.40,SSE,163,3.0,-999.0,53,-99.99,,,-99.99,,2013-01-19 15:03:00,
2013-01-19 10:13:00,41.0,25.0,30.40,SSE,163,3.0,-999.0,53,-99.99,,,-99.99,,2013-01-19 15:13:00,
2013-01-19 10:23:00,41.0,25.0,30.40,SSE,163,3.0,-999.0,53,-99.99,,,-99.99,,2013-01-19 15:23:00,
2013-01-19 10:33:00,41.0,25.0,30.40,SSE,163,3.0,-999.0,53,-99.99,,,-99.99,,2013-01-19 15:33:00,
2013-01-19 10:43:00,41.0,25.0,30.40,SSE,163,3.0,-999.0,53,-99.99,,,-99.99,,2013-01-19 15:43:00,
2013-01-19 11:03:00,42.0,25.0,30.40,WSW,244,2.0,-999.0,50,-99.99,,,-99.99,,2013-01-19 16:03:00,
2013-01-19 11:13:00,42.0,25.0,30.40,WSW,244,2.0,-999.0,50,-99.99,,,-99.99,,2013-01-19 16:13:00,
2013-01-19 11:23:00,43.0,25.0,30.40,WSW,250,2.0,-999.0,49,-99.99,,,-99.99,,2013-01-19 16:23:00,
2013-01-19 11:33:00,43.0,25.0,30.38,WSW,242,2.0,-999.0,48,-99.99,,,-99.99,,2013-01-19 16:33:00,
2013-01-19 11:43:00,43.0,25.0,30.38,WSW,242,2.0,-999.0,48,-99.99,,,-99.99,,2013-01-19 16:43:00,
2013-01-19 11:54:00,44.0,26.0,30.37,SW,221,2.0,-999.0,48,-99.99,,,-99.99,,2013-01-19 16:54:00,
2013-01-19 12:03:00,45.0,24.0,30.37,WNW,302,3.0,-999.0,44,-99.99,,,-99.99,,2013-01-19 17:03:00,
2013-01-19 12:21:00,45.0,24.0,30.37,WNW,302,3.0,-999.0,44,-99.99,,,-99.99,,2013-01-19 17:21:00,
2013-01-19 12:29:00,45.0,24.0,30.37,WNW,302,3.0,-999.0,44,-99.99,,,-99.99,,2013-01-19 17:29:00,
2013-01-19 12:33:00,47.0,23.0,30.33,NW,311,3.0,-999.0,39,-99.99,,,-99.99,,2013-01-19 17:33:00,
2013-01-19 12:35:00,46.0,25.0,30.34,NW,323,3.0,-999.0,44,-99.99,,,-99.99,,2013-01-19 17:35:00,
2013-01-19 12:48:00,46.0,25.0,30.34,NW,323,3.0,-999.0,44,-99.99,,,-99.99,,2013-01-19 17:48:00,
2013-01-19 12:55:00,47.0,23.0,30.33,NW,311,3.0,-999.0,39,-99.99,,,-99.99,,2013-01-19 17:55:00,
2013-01-19 13:12:00,47.0,23.0,30.33,NW,311,3.0,-999.0,39,-99.99,,,-99.99,,2013-01-19 18:12:00,
2013-01-19 14:04:00,49.0,24.0,30.28,North,355,4.0,-999.0,37,-99.99,,,-99.99,,2013-01-19 19:04:00,
2013-01-19 14:10:00,49.0,24.0,30.28,North,355,4.0,-999.0,37,-99.99,,,-99.99,,2013-01-19 19:10:00,
2013-01-19 14:18:00,50.0,23.0,30.26,NNW,336,5.0,-999.0,34,-99.99,,,-99.99,,2013-01-19 19:18:00,
2013-01-19 14:21:00,49.0,24.0,30.28,North,355,4.0,-999.0,37,-99.99,,,-99.99,,2013-01-19 19:21:00,
2013-01-19 14:30:00,51.0,26.0,30.27,WNW,298,4.0,-999.0,38,-99.99,,,-99.99,,2013-01-19 19:30:00,
2013-01-19 14:39:00,50.0,23.0,30.26,NNW,336,5.0,-999.0,34,-99.99,,,-99.99,,2013-01-19 19:39:00,
2013-01-19 14:50:00,50.0,23.0,30.26,NNW,336,5.0,-999.0,34,-99.99,,,-99.99,,2013-01-19 19:50:00,
2013-01-19 15:10:00,50.0,23.0,30.26,NNW,336,5.0,-999.0,34,-99.99,,,-99.99,,2013-01-19 20:10:00,
2013-01-19 15:28:00,50.0,25.0,30.24,WNW,302,4.0,-999.0,38,-99.99,,,-99.99,,2013-01-19 20:28:00,
2013-01-19 15:39:00,50.0,26.0,30.24,NW,324,3.0,-999.0,39,-99.99,,,-99.99,,2013-01-19 20:39:00,
2013-01-19 15:50:00,50.0,26.0,30.24,NW,324,3.0,-999.0,39,-99.99,,,-99.99,,2013-01-19 20:50:00,
2013-01-19 15:59:00,51.0,27.0,30.24,NE,40,4.0,-999.0,39,-99.99,,,-99.99,,2013-01-19 20:59:00,
2013-01-19 16:07:00,51.0,27.0,30.24,NE,40,4.0,-999.0,39,-99.99,,,-99.99,,2013-01-19 21:07:00,
2013-01-19 16:27:00,51.0,26.0,30.23,NW,319,4.0,-999.0,38,-99.99,,,-99.99,,2013-01-19 21:27:00,
2013-01-19 16:45:00,51.0,24.0,30.22,NNW,334,4.0,-999.0,35,-99.99,,,-99.99,,2013-01-19 21:45:00,
2013-01-19 16:53:00,51.0,24.0,30.22,NNW,334,4.0,-999.0,35,-99.99,,,-99.99,,2013-01-19 21:53:00,
2013-01-19 17:01:00,51.0,24.0,30.22,NW,312,3.0,-999.0,35,-99.99,,,-99.99,,2013-01-19 22:01:00,
2013-01-19 17:03:00,50.0,24.0,30.22,NW,311,5.0,-999.0,36,-99.99,,,-99.99,,2013-01-19 22:03:00,
2013-01-19 17:15:00,50.0,23.0,30.22,NW,304,5.0,-999.0,35,-99.99,,,-99.99,,2013-01-19 22:15:00,
2013-01-19 17:28:00,50.0,24.0,30.22,NW,311,5.0,-999.0,36,-99.99,,,-99.99,,2013-01-19 22:28:00,
2013-01-19 17:35:00,50.0,24.0,30.22,NW,311,5.0,-999.0,36,-99.99,,,-99.99,,2013-01-19 22:35:00,
2013-01-19 17:48:00,50.0,24.0,30.22,NW,311,5.0,-999.0,36,-99.99,,,-99.99,,2013-01-19 22:48:00,
2013-01-19 17:58:00,50.0,24.0,30.22,NW,311,5.0,-999.0,36,-99.99,,,-99.99,,2013-01-19 22:58:00,
2013-01-19 18:28:00,46.0,25.0,30.23,North,-999,-999.0,-999.0,43,-99.99,,,-99.99,,2013-01-19 23:28:00,
2013-01-19 18:35:00,46.0,25.0,30.23,North,-999,-999.0,-999.0,43,-99.99,,,-99.99,,2013-01-19 23:35:00,
2013-01-19 19:08:00,46.0,25.0,30.23,North,-999,-999.0,-999.0,43,-99.99,,,-99.99,,2013-01-20 00:08:00,
2013-01-19 19:25:00,45.0,24.0,30.23,North,-999,-999.0,-999.0,43,-99.99,,,-99.99,,2013-01-20 00:25:00,
2013-01-19 19:35:00,45.0,24.0,30.23,North,-999,-999.0,-999.0,43,-99.99,,,-99.99,,2013-01-20 00:35:00,
2013-01-19 19:46:00,45.0,24.0,30.23,North,-999,-999.0,-999.0,43,-99.99,,,-99.99,,2013-01-20 00:46:00,
2013-01-19 19:58:00,44.0,24.0,30.23,North,-999,-999.0,-999.0,45,-99.99,,,-99.99,,2013-01-20 00:58:00,
2013-01-19 20:04:00,44.0,23.0,30.23,North,-999,-999.0,-999.0,44,-99.99,,,-99.99,,2013-01-20 01:04:00,
2013-01-19 20:22:00,44.0,23.0,30.23,North,-999,-999.0,-999.0,44,-99.99,,,-99.99,,2013-01-20 01:22:00,
2013-01-19 20:27:00,45.0,24.0,30.22,North,-999,-999.0,-999.0,44,-99.99,,,-99.99,,2013-01-20 01:27:00,
2013-01-19 20:37:00,45.0,24.0,30.22,North,-999,-999.0,-999.0,44,-99.99,,,-99.99,,2013-01-20 01:37:00,
2013-01-19 20:48:00,45.0,24.0,30.22,North,-999,-999.0,-999.0,44,-99.99,,,-99.99,,2013-01-20 01:48:00,
2013-01-19 21:04:00,45.0,24.0,30.22,North,-999,-999.0,-999.0,44,-99.99,,,-99.99,,2013-01-20 02:04:00,
2013-01-19 21:15:00,45.0,24.0,30.22,North,-999,-999.0,-999.0,44,-99.99,,,-99.99,,2013-01-20 02:15:00,
2013-01-19 21:27:00,45.0,24.0,30.22,North,-999,-999.0,-999.0,43,-99.99,,,-99.99,,2013-01-20 02:27:00,
2013-01-19 21:36:00,45.0,24.0,30.22,North,-999,-999.0,-999.0,43,-99.99,,,-99.99,,2013-01-20 02:36:00,
2013-01-19 21:45:00,45.0,24.0,30.22,North,-999,-999.0,-999.0,43,-99.99,,,-99.99,,2013-01-20 02:45:00,
2013-01-19 21:59:00,45.0,24.0,30.21,North,-999,-999.0,-999.0,43,-99.99,,,-99.99,,2013-01-20 02:59:00,
2013-01-19 22:08:00,45.0,24.0,30.21,North,-999,-999.0,-999.0,43,-99.99,,,-99.99,,2013-01-20 03:08:00,
2013-01-19 22:15:00,45.0,24.0,30.21,North,-999,-999.0,-999.0,43,-99.99,,,-99.99,,2013-01-20 03:15:00,
2013-01-19 22:25:00,45.0,24.0,30.21,North,-999,-999.0,-999.0,43,-99.99,,,-99.99,,2013-01-20 03:25:00,
2013-01-19 22:38:00,45.0,24.0,30.20,North,-999,-999.0,-999.0,43,-99.99,,,-99.99,,2013-01-20 03:38:00,
2013-01-19 22:45:00,45.0,24.0,30.20,North,-999,-999.0,-999.0,43,-99.99,,,-99.99,,2013-01-20 03:45:00,
2013-01-19 22:58:00,45.0,24.0,30.21,North,-999,-999.0,-999.0,43,-99.99,,,-99.99,,2013-01-20 03:58:00,
2013-01-19 23:05:00,45.0,24.0,30.20,North,-999,-999.0,-999.0,44,-99.99,,,-99.99,,2013-01-20 04:05:00,
2013-01-19 23:15:00,45.0,24.0,30.20,North,-999,-999.0,-999.0,44,-99.99,,,-99.99,,2013-01-20 04:15:00,
2013-01-19 23:27:00,44.0,24.0,30.19,North,-999,-999.0,-999.0,45,-99.99,,,-99.99,,2013-01-20 04:27:00,
2013-01-19 23:36:00,44.0,25.0,30.19,North,-999,-999.0,-999.0,46,-99.99,,,-99.99,,2013-01-20 04:36:00,
2013-01-19 23:44:00,44.0,25.0,30.19,North,-999,-999.0,-999.0,46,-99.99,,,-99.99,,2013-01-20 04:44:00,